Home   Weather   Chilliwack   Past weeks

Flag for Canada Past Weather in Chilliwack, British Columbia, Canada — Yesterday and Last 2 Weeks

Now
68 °F

Mild.


Feels Like: 68 °F
Forecast: 56 / 66 °F
Wind: 5 mph from Southwest

Location: Agassiz

Current Time: Aug 30, 2016 at 7:30:13 PM

Latest Report: Aug 30, 2016 at 7:00 PM


Visibility: N/A

Pressure: 29.93 "Hg

Humidity: 64%

Dew Point: 55 °F

Location of ChilliwackLocation

Past Weather in Chilliwack — Graph

°F

Chilliwack Temperature Yesterday

Maximum temperature yesterday: 80 °F (at 6:00 PM)
Minimum temperature yesterday: 53 °F (at 7:00 AM)
Average temperature yesterday: 65 °F

High & Low Weather Summary for the Past Weeks

 TemperatureHumidityPressure
High94 °F (Aug 18, 5:00 PM)98% (Aug 28, 10:00 PM)30.26 "Hg (Aug 28, 10:00 PM)
Low50 °F (Aug 30, 6:00 AM)11% (Aug 18, 4:00 PM)29.72 "Hg (Aug 27, 3:00 AM)
Average70 °F58%29.99 "Hg
* Reported Aug 15 6:00 PM — Aug 30 6:00 PM, Chilliwack, Weather by CustomWeather, © 2016

Note: Actual official high and low records may vary slightly from our data, if they occured in-between our weather recording intervals... More about our weather records

Advertising

Chilliwack Weather History for the Previous 24 Hours

Scroll right to see more
 ConditionsComfort  
Time TempWeatherWind HumidityBarometerVisibility
6:00 PM
Tue, Aug 30
69 °FMild.6 mph63%29.94 "HgN/A
5:00 PM70 °FMild.8 mph61%29.94 "HgN/A
4:00 PM72 °FMild.8 mph57%29.92 "HgN/A
3:00 PM72 °FMild.7 mph56%29.93 "HgN/A
2:00 PM72 °FMild.9 mph57%29.94 "HgN/A
1:00 PM71 °FMild.8 mph61%29.95 "HgN/A
12:00 PM70 °FMild.6 mph61%29.96 "HgN/A
11:00 AM67 °FMild.3 mph67%29.98 "HgN/A
10:00 AM65 °FMild.1 mph72%30.01 "HgN/A
9:00 AM63 °FMild.1 mph81%30.02 "HgN/A
8:00 AM57 °FCool.1 mph97%30.03 "HgN/A
7:00 AM51 °FCool.1 mph97%30.03 "HgN/A
6:00 AM50 °FCool.1 mph96%30.01 "HgN/A
5:00 AM53 °FCool.No wind95%30.01 "HgN/A
4:00 AM52 °FCool.1 mph94%30.00 "HgN/A
3:00 AM53 °FCool.1 mph94%30.00 "HgN/A
2:00 AM53 °FCool.1 mph93%29.98 "HgN/A
1:00 AM56 °FCool.No wind91%29.97 "HgN/A
12:00 AM57 °FCool.1 mph89%29.97 "HgN/A
11:00 PM
Mon, Aug 29
60 °FCool.1 mph87%29.97 "HgN/A
10:00 PM62 °FCool.1 mph72%29.97 "HgN/A
9:00 PM65 °FMild.2 mph73%29.96 "HgN/A
8:00 PM70 °FMild.2 mph63%29.95 "HgN/A
7:00 PM76 °FMild.5 mph53%29.93 "HgN/A
Weather by CustomWeather, © 2016

See weather overviewHow to use our weather pages